Regional Weather Roundup
Issued by NWS Jackson, KY

Home | Current Version | Previous Version | Text Only | Print | Product List | Glossary On
Versions: 1 2 3 4 5 6 7 8 9 10 11 12 13 14 15 16 17 18 19 20 21 22 23 24 25 26 27 28 29 30 31 32 33 34 35 36 37 38 39 40 41 42 43 44 45 46 47 48 49 50
000
ASUS43 KJKL 250219
RWRJKL

EAST KENTUCKY HOURLY WEATHER ROUNDUP
NATIONAL WEATHER SERVICE JACKSON KY
1000 PM EDT THU JUL 24 2014

NOTE: "FAIR" INDICATES FEW OR NO CLOUDS BELOW 12,000 FEET WITH
NO SIGNIFICANT WEATHER AND/OR OBSTRUCTIONS TO VISIBILITY.

* THESE REPORTS ARE NOT UNDER NWS QUALITY CONTROL AND MAY NOT
  REPORT WEATHER SUCH AS PRECIPITATION AND FOG.

KYZ079-080-083-085-087-088-110-112-115-119-120-250300
...EASTERN KENTUCKY...

CITY           SKY/WX    TMP DP  RH WIND       PRES   REMARKS
JACKSON        CLEAR     65  62  90 CALM      30.06R
LONDON         CLEAR     65  61  87 CALM      30.06R
SOMERSET*      CLEAR     64  63  94 CALM      30.07R
MONTICELLO*    CLEAR     63  62  96 CALM      30.07R FOG
MIDDLESBORO*   CLEAR     65  62  90 CALM      30.05R
HARLAN APT*    MOCLDY    61  61 100 MISG      30.06R
PIKEVILLE APT* PTCLDY    63  63 100 CALM      30.06R
BIG SANDY*     CLEAR     63  63  98 CALM      30.05R FOG
ASHLAND*         N/A    N/A N/A N/A MISG        N/A
$$

KYZ035-036-041-042-044-050-067-078-099-250300
...CENTRAL KENTUCKY...

CITY           SKY/WX    TMP DP  RH WIND       PRES   REMARKS
MT STERLING*   MOCLDY    64  59  82 CALM      30.07R
FLEMING/MASON* CLOUDY    67  56  68 N5        30.08R
DANVILLE*      MOCLDY    68  59  73 CALM      30.06R
RICHMOND*      PTCLDY    66  61  82 CALM      30.05R
LEXINGTON      MOCLDY    69  55  60 N6        30.06R
FRANKFORT      MOCLDY    68  57  68 CALM      30.04S
$$

KYZ091>093-OHZ055-061-077-WVZ005-015-034-035-042-250300
...SOUTHERN OHIO/WEST VIRGINIA...

CITY           SKY/WX    TMP DP  RH WIND       PRES   REMARKS
COVINGTON      MOCLDY    70  54  56 N8        30.06R
COLUMBUS       MOCLDY    69  51  52 N12       30.07R
DAYTON         PTCLDY    63  52  67 N6        30.09R
WILMINGTON     CLEAR     64  54  69 N8        30.08R
HUNTINGTON     CLOUDY    65  64  97 CALM      30.02R
CHARLESTON     PTCLDY    65  64  97 SW3       30.02R
PINEVILLE*     CLOUDY    64  64 100 MISG      30.10R
BECKLEY        PTCLDY    61  59  93 CALM      30.07R FOG
BLUEFIELD      CLOUDY    64  59  83 N6        30.09R
$$

VAZ002-007-008-TNZ017-027-036-066-071-250300
...SOUTHWEST VIRGINIA/EAST TENNESSEE...

CITY           SKY/WX    TMP DP  RH WIND       PRES   REMARKS
WISE*          CLOUDY    61  61 100 N6        30.09R FOG
JONESVILLE*      N/A     64  63  94 CALM      30.06R
ABINGDON*      CLOUDY    67  64  89 CALM      30.06R
BRISTOL        CLOUDY    68  61  78 N5        30.04R
KNOXVILLE      PTCLDY    70  64  81 N9        30.01R
OAK RIDGE      CLEAR     70  62  76 CALM      30.04R
CROSSVILLE     CLEAR     68  62  81 NE6       30.07R
NASHVILLE      MOCLDY    77  59  53 N9        30.01R
$$

...KEY TO REMARKS...
VSB - VISIBILITY IN MILES
WCI - WIND CHILL INDEX
HX  - HEAT INDEX

$$


USA.gov is the U.S. government's official web portal to all federal, state and local government web resources and services.